National Weather Service United States Department of Commerce

Latest Hourly Weather Roundup

TOPSWRTT 000
TTAA00 KICT 170812

Wichita AWIPS Roundup
National Weather Service Wichita KS
300 AM CDT FRI AUG 17 2018

....Central Kansas....
  
CITY           SKY/WX    TMP DP  RH WIND       PRES   REMARKS
RUSSELL        PTCLDY    71  71 100 CALM      30.07F                  
SALINA         CLOUDY    71  70  96 NW5       30.05F                  
GREAT BEND     MOCLDY    72  69  90 NE6       30.07F                  
ELLSWORTH      PTCLDY    72  70  94 CALM      30.06S                  
LYONS          CLOUDY    72  69  92 E7        30.06F                  
MCPHERSON      NOT AVBL                                               
HAYS           CLEAR     70  67  90 NE7       30.10S                  

....South Central Kansas....
  
CITY           SKY/WX    TMP DP  RH WIND       PRES   REMARKS
HUTCHINSON     MOCLDY    72  71  97 E3        30.04F                  
NEWTON         LGT RAIN  70  69  97 N12       30.07R                  
KINGMAN        PTCLDY    72  70  94 CALM      30.03F                  
WICHITA (ICT)  CLOUDY    72  69  90 S8        30.01F                  
JABARA ARPT    MOCLDY    71  67  87 CALM      30.02S                  
BEECH ARPT     PTSUNNY   70  65  85 S5        30.02F                  
MCCONNELL AFB  CLEAR     71  65  82 S9        30.01F                  
BENTON         FAIR      69  66  89 CALM      30.04S                  
EL DORADO      FAIR      72  66  83 S6        30.02F                  
AUGUSTA        FAIR      68  64  88 S3        30.02F                  
HARPER           N/A     72  70  94 CALM      30.06S                  
WELLINGTON     CLEAR     72  68  88 SE6       30.00F                  
WINFIELD       CLEAR     71  68  90 SE7       30.03F                  
 
....Southeast Kansas....
  
CITY           SKY/WX    TMP DP  RH WIND       PRES   REMARKS
EUREKA         NOT AVBL                                               
IOLA           FAIR      68  67  98 CALM      30.02S                  
CHANUTE        LGT RAIN  70  68  93 N7        30.03R                  
PARSONS        CLOUDY    70  68  93 S5        30.00F                  
COFFEYVILLE    CLOUDY    70  67  90 S7        29.97F                  
INDEPENDENCE   CLOUDY    68  66  93 S8        30.00F                  
FORT SCOTT     CLEAR     68  66  94 CALM      30.00F                  
PITTSBURG      NOT AVBL                                               

....Western Kansas....
  
CITY           SKY/WX    TMP DP  RH WIND       PRES   REMARKS
GOODLAND       CLEAR     62  59  90 SE3       30.18S                  
HILL CITY      CLEAR     65  65 100 CALM      30.12S                  
LIBERAL        CLEAR     72  67  84 NE9       30.09S                  
GARDEN CITY    CLEAR     72  69  90 NE14      30.11F                  
DODGE CITY     CLEAR     71  68  90 NE9       30.08F FOG              
PRATT          NOT AVBL                                               
MEDICINE LODGE   N/A     72  69  90 SE5       30.02S                  

....Northeast Kansas....
  
CITY           SKY/WX    TMP DP  RH WIND       PRES   REMARKS
CONCORDIA      CLEAR     68  65  90 N3        30.06S                  
TOPEKA         PTCLDY    72  70  93 W3        30.01R                  
MANHATTAN      CLEAR     71  70  96 CALM      30.03S                  
LAWRENCE       CLOUDY    72  70  93 W7        30.00F                  
OLATHE         MOCLDY    70  69  97 SW3       30.01S                  
EMPORIA        LGT RAIN  70  67  90 NW3       30.02R                  

....Oklahoma....
  
CITY           SKY/WX    TMP DP  RH WIND       PRES   REMARKS
GAGE           PTCLDY    76  68  76 S7        30.03S                  
PONCA CITY     PTCLDY    73  67  81 E9        30.02F                  
BARTLESVILLE   CLOUDY    69  67  93 SE3       30.03F                  
TULSA          CLOUDY    73  70  90 NE7       30.02R                  
OKLAHOMA CITY  MOCLDY    72  70  93 S5        30.00F                  

Note: "fair" indicates few or no clouds below 12,000 feet with no
significant weather and/or obstructions to visibility.